Temp
23 24 24 26 27 29 34 33 35 34 34 35 35 34 34 33 27 30 31 30 29 27 24 23 21 21 21 22 21 21 21 22 22 22 22 21 21 21 22 21 21 22 21 21 21 21 21 21 21
25 25 26 30 28 34 33 35 34 35 35 35 35 34 31 32 33 33 31 30 29 28 27 24 22 21 21 21 21 21 22 21 21 22 22 21 21 21 21 21 21 22 21 21 21 21 21 21 21
25 27 29 27 34 33 34 35 35 34 35 35 33 34 32 32 33 32 30 30 29 28 27 23 22 21 21 21 21 22 22 21 21 22 21 21 21 22 21 21 21 21 21 21 21 21 21 22 21
30 31 32 30 34 35 35 35 35 34 35 36 35 32 32 33 33 31 30 30 30 29 26 22 21 21 21 21 22 22 21 22 22 21 22 21 21 21 22 22 22 21 21 21 21 21 21 21 21
30 34 31 36 35 35 36 36 36 35 35 35 35 33 31 32 32 31 30 30 30 29 25 23 22 21 21 21 21 21 22 21 22 21 22 21 22 21 22 21 21 21 21 21 22 21 21 21 21
32 34 35 35 35 36 36 36 36 36 35 35 34 32 31 31 31 31 31 31 31 30 27 24 22 21 21 22 21 21 21 21 21 22 21 21 22 21 21 21 22 22 22 22 22 21 21 21 21
29 38 37 36 35 35 35 36 36 36 35 35 36 32 32 32 31 31 31 31 31 30 28 26 24 22 21 21 21 21 21 22 21 21 21 21 21 22 22 21 21 22 22 21 21 21 21 21 21
38 39 37 37 35 35 36 37 37 37 35 36 36 32 31 32 31 31 31 31 31 30 29 27 26 25 24 23 21 21 21 21 21 21 22 22 22 22 23 23 22 22 22 22 21 22 22 21 21
38 38 37 37 36 35 37 36 37 37 35 36 36 35 33 31 31 31 31 31 30 30 30 29 27 26 25 24 22 22 22 21 22 22 23 23 24 24 23 22 22 21 22 22 22 22 22 22 21
38 38 37 38 38 36 37 37 36 36 36 35 35 35 32 31 31 32 32 32 31 31 30 30 28 26 26 26 24 24 24 24 24 25 23 25 26 25 25 23 21 22 23 23 23 24 23 23 23
40 38 39 38 38 38 37 37 37 36 35 35 34 33 32 32 32 32 32 32 32 31 30 29 28 28 28 27 27 26 25 24 24 24 25 25 26 25 26 24 23 24 23 24 24 24 24 24 24
39 39 39 38 38 38 37 37 37 37 37 37 35 34 33 33 33 33 33 33 32 31 30 29 28 28 28 27 27 26 27 25 23 24 25 25 26 25 25 25 26 26 26 25 26 25 25 25 25
40 39 39 38 38 39 38 37 37 36 37 37 35 34 34 34 33 33 33 33 32 31 30 30 28 26 27 27 28 27 28 26 25 25 26 26 25 26 26 25 26 26 27 26 26 23 23 25 25
40 40 39 39 39 39 38 38 38 36 37 36 35 35 35 35 34 33 33 32 32 31 31 30 28 26 26 27 27 28 28 28 27 26 26 25 25 26 25 25 25 26 27 26 24 24 23 23 23
41 39 40 39 39 39 39 37 38 37 37 35 35 35 35 35 34 33 32 32 32 31 31 30 28 27 26 26 26 27 28 28 28 26 25 25 25 25 26 26 25 26 26 26 24 23 24 23 22
41 41 39 40 39 38 37 36 37 38 37 36 36 35 35 35 34 32 32 32 31 31 30 29 29 28 27 27 26 27 28 28 28 27 26 25 25 24 24 26 26 26 26 26 26 25 23 23 22
42 40 39 39 40 40 36 37 37 38 38 36 36 35 35 34 34 33 32 31 31 31 30 28 28 29 27 27 26 27 27 28 27 27 27 25 25 24 24 26 27 26 26 26 26 25 24 23 22
39 40 40 39 40 40 40 39 38 39 39 37 36 36 35 34 34 33 33 32 31 30 29 28 28 28 27 26 26 27 27 27 28 27 26 25 25 25 24 25 24 25 26 26 25 24 24 23 22
40 40 39 40 40 40 40 40 39 39 39 38 37 37 36 35 35 34 33 32 32 30 29 28 27 27 26 26 26 27 28 28 28 27 26 26 25 25 24 25 24 24 24 24 24 23 23 22 21
40 40 40 40 40 39 40 39 41 40 39 39 38 38 37 37 36 34 34 33 32 31 30 28 27 26 26 27 27 28 28 28 28 28 26 26 25 25 24 24 25 25 26 24 23 23 23 22 22
40 40 39 39 40 41 40 39 40 41 41 40 40 39 39 37 37 36 34 34 33 32 30 29 28 26 26 27 27 27 28 28 28 28 27 26 25 25 25 24 25 25 25 25 24 24 24 23 22
40 40 40 39 39 39 41 38 39 41 41 40 41 40 39 39 38 37 36 35 34 33 31 30 28 27 26 26 27 27 28 29 29 28 29 28 26 26 25 25 24 24 25 25 25 24 24 23 23
40 40 40 39 39 40 40 40 39 40 40 41 41 41 41 40 39 38 38 36 35 34 33 31 29 27 27 26 27 27 27 29 29 29 29 28 28 26 26 26 24 24 24 26 25 25 24 24 23
40 40 40 41 41 39 40 40 40 40 39 40 41 42 42 42 41 39 38 37 36 35 33 32 29 28 27 26 26 27 28 28 29 29 28 29 29 28 26 26 26 25 24 25 25 24 24 24 24
40 40 40 39 40 39 40 40 40 40 40 40 40 41 41 41 42 40 39 38 37 36 34 33 30 28 27 27 27 26 27 27 27 28 29 28 29 28 28 26 26 25 24 25 25 24 24 24 25
41 41 40 37 38 39 40 39 39 41 41 41 41 41 41 41 41 42 40 38 37 36 35 33 32 29 28 27 27 26 26 27 27 28 28 29 30 30 30 27 26 25 25 25 24 24 25 25 25
40 40 41 40 41 40 40 40 40 41 40 40 40 39 40 41 41 41 41 38 37 36 35 34 32 31 29 29 27 27 26 26 28 28 28 28 28 29 28 28 27 26 25 25 24 24 24 25 25
40 40 40 41 37 37 39 38 37 38 38 39 38 38 38 39 40 40 40 39 37 36 35 32 30 31 30 30 29 28 27 26 26 27 28 28 29 28 27 27 26 26 26 25 25 24 26 25 25
40 40 40 40 39 38 38 38 40 38 39 39 38 37 37 37 38 38 39 37 36 36 35 34 32 32 31 30 30 29 28 28 26 27 27 27 27 27 27 26 26 26 25 25 25 24 25 25 25
40 40 40 39 38 39 38 38 40 39 40 40 39 37 36 35 36 36 35 35 34 35 35 34 33 32 31 30 29 29 28 28 27 27 27 27 27 27 26 26 25 25 25 26 25 25 26 25 25
Height
786 787 787 784 795 781 781 782 764 776 773 763 766 770 776 776 803 811 797 804 810 818 826 830 832 835 836 837 839 840 842 843 844 845 846 846 846 846 847 847 848 849 849 851 852 853 854 855 856
785 785 786 773 798 783 789 767 776 769 767 766 767 773 783 792 782 789 799 809 813 819 825 831 833 835 838 839 840 841 843 844 845 847 847 847 847 848 849 849 850 851 852 854 855 856 857 857 859
784 785 776 786 770 791 790 770 773 771 768 767 779 774 783 796 790 794 804 810 815 822 825 831 834 837 839 840 841 842 844 846 847 848 848 848 849 850 852 852 853 854 855 856 858 858 859 859 861
779 773 768 787 783 774 774 771 771 776 769 767 771 791 792 790 794 800 808 812 815 820 827 833 836 838 840 842 843 844 845 847 849 850 850 851 852 853 854 855 856 857 858 859 860 862 862 862 863
777 763 781 772 780 771 769 766 766 774 772 771 770 790 799 797 800 806 810 813 817 820 831 835 837 839 842 843 844 845 847 847 849 851 852 853 854 855 856 857 858 859 860 861 863 863 864 864 865
775 760 777 785 785 772 769 764 763 770 774 776 780 791 800 802 805 809 812 814 817 821 830 837 839 841 843 844 846 847 849 850 851 852 854 855 856 857 858 859 861 862 863 864 864 865 866 866 867
781 756 776 780 787 785 781 765 769 773 777 778 775 797 800 802 807 810 812 815 819 824 830 837 840 843 844 846 847 849 850 852 853 854 856 858 858 859 860 862 863 864 865 865 866 866 867 868 868
750 750 772 771 787 790 773 765 761 766 780 773 773 799 806 802 808 811 814 816 820 825 829 834 839 843 845 847 849 850 851 853 855 856 857 859 860 861 863 864 865 866 868 866 868 867 868 869 870
750 767 780 775 782 784 765 774 766 764 776 774 773 782 794 804 808 812 815 817 823 826 829 832 838 843 845 847 849 851 852 854 856 857 859 860 862 863 865 866 867 868 868 869 869 869 869 870 871
756 775 781 762 762 776 766 767 772 774 778 783 780 784 797 805 809 811 814 817 822 825 828 832 837 842 843 846 850 852 853 855 857 858 860 860 861 862 865 867 868 868 869 869 870 870 870 871 873
751 776 764 764 762 761 768 772 765 775 783 782 789 793 800 805 809 810 813 816 819 825 828 835 838 839 842 845 848 850 854 856 857 860 860 862 862 864 865 868 868 869 868 870 870 872 871 872 873
770 761 760 765 764 765 770 767 771 770 770 773 784 792 799 803 806 808 810 814 818 825 830 834 840 841 842 845 848 851 852 854 857 860 861 862 863 863 866 866 867 867 866 868 870 871 873 873 873
762 766 760 761 764 762 763 770 774 777 769 776 786 793 797 800 805 807 810 814 818 825 830 833 840 844 845 847 847 849 850 852 856 858 859 861 863 864 865 867 867 866 866 868 871 872 874 875 875
757 758 762 761 762 762 768 771 765 776 772 781 787 791 795 798 803 807 811 815 819 824 829 833 840 845 846 847 849 849 850 850 853 856 859 861 862 864 865 866 866 867 866 868 870 872 873 875 875
753 767 759 762 762 765 758 780 775 772 774 784 787 790 793 797 802 808 813 817 820 825 829 834 839 844 847 849 851 851 851 851 853 855 859 861 862 863 864 865 865 865 866 867 870 871 873 873 874
758 757 778 765 761 765 773 794 774 769 776 784 785 790 793 796 801 808 813 817 821 824 829 834 838 841 846 848 851 851 851 851 852 854 858 861 862 862 864 864 864 865 867 868 868 869 871 873 873
753 783 779 777 757 761 776 781 770 766 770 782 784 788 791 795 800 806 811 816 820 823 829 834 838 840 844 847 850 851 852 851 852 854 856 859 861 862 863 862 863 864 865 867 867 868 869 871 871
789 778 779 783 768 759 763 767 768 764 765 775 782 783 789 793 797 803 808 813 817 823 828 833 836 839 843 846 849 850 850 851 851 854 856 858 859 862 863 862 863 865 864 865 866 866 868 869 870
772 778 781 772 764 770 768 766 761 764 766 769 776 779 784 789 794 800 806 810 814 820 825 830 834 838 841 844 846 847 848 849 850 853 855 857 859 859 862 861 861 863 864 864 866 866 867 868 867
773 777 774 768 766 773 771 774 756 755 764 763 768 774 778 782 788 795 801 805 810 816 822 827 832 835 838 841 843 844 846 847 849 851 853 856 858 859 861 861 860 860 860 862 864 864 865 865 866
769 775 782 785 770 759 770 778 769 750 750 757 759 762 767 774 780 787 794 799 805 810 818 823 828 832 835 837 840 842 844 845 847 849 851 853 856 858 858 860 859 859 860 860 861 861 861 863 864
777 765 772 778 783 791 760 799 772 757 756 758 754 756 760 764 772 778 786 793 798 805 812 818 824 828 832 835 837 838 839 840 842 844 845 848 851 854 856 858 858 858 858 857 858 858 859 860 861
776 762 770 773 780 772 775 779 777 757 768 756 751 747 749 755 760 769 775 783 790 798 806 813 818 823 827 830 832 836 837 837 838 840 841 845 847 849 851 853 855 856 856 855 856 857 857 857 857
759 768 764 761 765 790 776 774 775 774 771 761 747 742 742 742 749 759 768 775 783 791 798 803 811 816 821 825 827 830 832 834 834 836 837 839 840 842 844 847 849 851 853 853 854 855 855 855 854
764 766 784 796 785 795 769 779 776 763 755 753 750 743 739 740 741 749 760 767 776 783 791 799 806 812 816 818 822 825 828 831 832 834 835 837 837 838 837 840 843 845 847 848 850 851 852 851 851
763 761 779 821 803 790 772 792 783 750 744 743 738 737 734 733 737 739 751 763 771 778 786 791 797 804 809 815 818 822 825 828 830 830 831 831 830 830 833 836 839 841 842 843 845 846 847 846 846
766 776 755 775 766 778 775 771 759 752 754 749 747 746 741 735 735 737 747 759 768 774 782 789 795 801 806 809 814 818 822 824 825 827 828 829 829 828 830 833 835 837 839 839 840 841 842 842 842
764 756 781 766 811 818 789 788 796 776 771 758 759 756 751 747 743 743 748 757 766 772 778 788 794 796 800 804 808 813 817 819 822 824 826 826 827 828 828 830 831 833 833 835 836 836 835 838 838
769 771 769 765 777 804 805 795 759 771 765 762 762 762 761 758 755 755 756 761 768 771 775 782 789 792 796 801 803 808 811 815 819 822 822 823 825 825 825 825 827 828 827 828 830 830 830 833 835
757 762 764 782 795 777 795 793 751 759 756 755 759 763 765 766 764 766 768 771 773 774 776 780 785 790 794 798 802 806 809 810 811 812 822 821 819 821 821 821 821 822 822 821 823 824 825 827 830
Wind_Speed
9 8 7 6 4 4 13 13 13 11 9 11 9 13 14 17 4 11 25 21 22 21 18 15 13 12 13 12 13 13 14 14 13 12 10 9 8 11 10 12 12 13 14 15 16 16 15 16 15
11 9 7 6 3 11 9 13 11 10 10 12 8 9 9 18 14 20 20 23 20 21 18 15 14 13 14 12 12 12 12 11 11 10 10 10 11 10 12 12 13 15 15 15 16 16 15 14 13
7 5 4 4 6 10 10 12 9 10 11 8 5 9 9 15 17 16 26 23 22 18 19 16 15 14 13 12 11 10 10 10 10 10 10 10 11 12 12 14 15 16 16 16 15 15 15 14 13
9 8 5 3 10 12 13 13 10 11 8 7 5 14 9 19 11 24 24 21 20 19 20 16 15 13 12 10 12 9 8 8 10 10 10 11 11 12 13 13 14 15 16 14 15 13 13 14 13
11 6 6 12 13 15 13 8 10 11 7 8 5 12 14 13 19 23 21 20 18 22 16 15 14 13 11 10 10 9 10 11 13 11 12 10 11 12 13 13 14 14 14 14 13 14 13 13 12
7 4 2 12 13 10 10 8 3 11 10 9 17 17 13 16 23 21 19 18 16 18 19 14 12 11 11 10 10 11 12 15 13 13 12 11 12 12 14 13 13 12 12 12 11 11 11 11 10
14 6 14 12 11 10 7 4 7 11 10 13 16 17 14 18 21 21 18 17 16 19 16 14 12 10 9 8 9 10 11 12 12 11 12 11 11 11 13 11 12 11 11 10 10 10 9 10 10
6 6 9 11 9 13 9 6 5 10 14 10 11 10 17 21 21 20 18 17 17 15 16 18 14 11 10 9 8 9 10 11 11 10 11 11 11 10 11 11 10 10 10 12 11 11 11 12 10
10 3 9 12 12 11 8 9 9 11 10 8 4 18 23 24 22 20 19 16 15 14 15 17 15 11 11 10 9 9 9 10 12 10 12 12 9 10 11 10 10 10 10 11 10 10 10 10 9
6 11 12 11 14 11 4 11 9 9 10 9 11 25 26 24 21 20 19 18 16 15 14 14 13 13 13 14 10 10 8 9 10 12 8 8 7 11 12 8 9 9 8 10 9 10 10 10 7
15 9 12 9 12 10 8 10 5 10 9 10 15 20 22 22 20 19 18 17 18 16 14 12 12 11 12 12 13 11 8 9 7 10 11 9 7 9 10 8 8 8 9 9 9 5 6 6 6
14 6 9 9 5 3 12 7 8 7 9 14 15 20 21 19 18 18 17 16 17 17 14 14 13 8 11 12 13 9 12 9 10 10 8 9 8 8 8 3 8 9 8 6 4 7 5 4 4
10 8 8 8 7 5 4 4 9 11 9 16 16 18 18 17 18 17 15 14 15 16 15 14 14 10 9 10 10 11 9 15 12 12 9 8 6 6 8 5 3 2 5 8 5 4 5 3 4
5 6 10 7 7 7 7 7 6 10 13 16 16 17 16 16 17 15 14 15 13 14 15 15 13 12 11 8 8 7 9 12 12 12 10 7 9 8 7 8 9 6 6 8 5 7 5 2 2
3 12 13 10 6 7 5 7 12 13 14 15 15 15 15 15 16 14 13 14 14 14 15 15 13 13 11 9 9 8 8 9 9 16 10 9 5 7 6 8 5 4 5 5 6 5 5 2 4
10 13 10 9 9 9 8 11 12 15 14 15 15 15 15 15 17 17 16 15 14 14 14 13 13 14 12 10 9 9 9 9 10 10 9 9 8 7 7 7 9 7 6 7 6 6 5 3 5
5 8 9 10 1 1 17 14 13 14 15 14 15 16 15 15 16 18 17 17 17 15 15 14 13 12 13 10 9 8 9 8 9 8 10 11 9 8 7 7 6 6 8 7 7 8 8 6 6
2 9 7 7 4 5 4 17 13 13 14 16 15 16 16 16 17 20 19 18 17 16 16 16 15 13 13 12 10 10 9 10 10 11 11 11 10 9 9 11 7 8 8 9 8 11 6 6 6
5 5 4 6 3 10 2 6 18 12 11 14 16 15 17 17 19 21 21 20 19 18 17 17 17 16 15 14 13 12 11 10 9 8 8 7 9 10 10 9 9 10 9 9 9 9 10 7 7
6 8 2 3 2 7 8 9 8 16 13 12 15 16 17 17 18 21 23 23 22 21 19 18 18 18 18 15 13 12 11 11 10 9 10 9 10 10 8 9 8 9 10 9 9 9 9 7 8
13 7 9 9 9 14 7 13 11 10 12 14 12 15 17 19 19 19 24 25 25 24 23 21 21 20 20 17 15 12 11 8 11 10 10 12 11 11 11 11 12 7 7 9 8 10 10 7 6
11 4 4 9 9 7 4 7 5 6 12 11 13 15 16 18 19 20 24 26 26 25 24 23 22 21 21 21 18 17 15 13 13 13 14 11 13 12 13 13 11 11 11 8 8 10 8 7 8
12 7 9 10 11 12 8 6 8 10 12 14 13 14 16 18 20 21 24 28 27 27 25 25 24 23 22 23 21 19 17 14 12 12 11 12 11 11 13 14 13 14 11 12 9 7 7 8 9
10 12 16 11 11 8 6 10 11 11 6 5 6 5 8 15 20 20 26 27 27 26 27 27 26 26 26 25 25 22 20 18 15 14 13 13 15 15 16 16 15 15 13 13 12 11 11 11 11
11 18 11 6 6 11 6 7 12 8 6 5 6 7 8 12 15 21 20 23 25 26 27 25 26 26 26 27 26 26 25 20 18 14 14 10 12 15 19 20 17 15 17 15 13 13 13 12 14
2 13 7 4 3 10 5 2 9 6 10 7 7 5 6 9 14 20 21 23 25 25 25 27 27 26 26 26 26 25 25 23 22 19 18 17 16 14 9 13 14 14 16 16 15 15 15 16 16
6 5 9 11 10 7 7 6 9 8 11 11 11 10 9 3 10 13 18 23 21 22 24 23 20 22 22 23 22 23 23 23 21 20 19 19 16 13 10 12 14 15 16 18 17 17 17 18 16
12 9 8 5 1 6 9 6 10 8 9 10 12 11 10 8 6 7 11 17 19 20 22 20 15 20 19 21 21 20 20 21 20 18 19 17 15 15 14 13 15 17 17 18 17 18 21 19 18
9 10 4 3 4 4 4 9 11 7 5 8 14 12 10 10 9 7 9 12 14 16 17 17 19 16 17 18 19 19 18 17 15 16 18 19 18 17 17 18 18 20 20 19 20 20 22 16 18
7 9 10 5 3 4 3 2 10 5 3 9 11 11 10 7 7 6 7 8 8 9 10 11 11 12 13 13 15 16 15 14 12 11 17 18 18 19 20 20 21 22 23 21 22 21 21 20 21
Wind_Direction
165 179 200 234 242 193 85 88 103 109 100 94 74 58 58 33 80 91 134 122 132 127 133 124 117 111 110 110 112 113 116 121 117 111 94 85 86 87 91 97 100 101 103 99 103 106 107 108 110
179 187 223 268 255 91 84 103 105 86 88 103 114 92 90 56 94 115 117 131 130 130 132 127 122 114 110 107 112 120 122 121 112 104 90 84 92 89 88 92 102 100 101 104 101 104 102 103 109
230 240 271 277 31 76 92 83 82 85 125 131 87 115 52 95 107 118 123 134 129 132 125 128 128 118 113 111 111 115 126 123 115 100 84 86 93 93 94 96 95 96 102 102 103 103 103 106 110
195 196 226 352 70 71 78 77 95 118 152 51 128 89 81 113 112 122 133 133 131 131 120 131 127 121 119 116 114 120 127 133 133 112 97 91 98 94 98 96 105 103 104 107 99 98 101 105 109
254 271 224 96 89 85 89 121 128 130 148 117 143 100 107 96 118 131 136 134 134 119 125 129 127 124 122 122 123 122 112 117 125 115 103 98 101 101 103 101 101 110 111 108 109 105 102 101 105
256 244 136 87 88 90 95 74 105 95 80 102 101 108 109 129 134 137 140 133 136 125 132 128 129 129 124 118 126 121 120 114 114 111 105 106 101 104 104 105 106 108 113 118 111 107 108 106 108
223 56 71 89 99 90 82 156 110 100 115 111 123 111 124 140 139 142 142 137 133 125 120 135 135 136 129 133 125 122 125 126 118 110 111 113 107 107 114 112 108 108 112 115 112 114 116 124 112
287 102 69 72 82 98 150 124 140 114 89 110 129 138 146 140 148 145 143 144 132 134 135 139 138 141 140 133 134 128 130 130 133 124 121 120 117 108 118 113 110 116 106 112 111 113 119 124 117
256 53 73 65 88 110 151 126 54 100 142 67 76 134 140 147 152 151 148 146 139 145 141 142 140 139 144 141 136 127 127 132 135 129 129 129 124 128 115 116 119 118 106 116 109 109 115 126 120
186 71 62 74 93 109 122 112 117 146 118 101 100 113 140 153 158 158 159 152 156 149 152 136 136 149 156 142 143 139 141 134 145 140 143 159 146 108 121 121 128 130 122 112 109 106 111 127 127
60 80 98 73 84 71 94 102 174 117 155 138 132 141 150 157 165 166 165 164 158 156 146 149 141 164 149 133 150 147 149 141 158 142 152 144 139 154 144 127 147 143 153 149 133 109 137 135 135
95 82 90 109 131 146 84 123 111 39 97 128 139 151 159 165 173 171 170 167 153 153 156 160 147 157 135 154 146 162 155 142 156 160 157 150 169 140 129 155 145 181 155 162 160 124 109 103 90
82 109 111 112 155 116 132 82 109 90 106 121 139 157 166 172 172 175 173 162 159 159 160 157 150 160 142 160 154 158 146 163 152 166 169 141 166 157 175 153 174 145 129 143 158 123 147 123 84
75 112 129 149 143 140 144 115 178 115 129 135 150 165 170 175 174 171 175 166 174 165 163 153 159 161 158 163 163 155 163 154 143 158 163 164 196 174 161 177 194 167 162 148 131 185 166 175 133
235 140 151 158 174 125 200 143 99 133 144 151 163 169 170 174 171 172 178 176 181 175 165 158 168 167 165 160 171 179 176 165 168 151 162 183 175 185 191 192 193 223 164 142 166 176 190 222 196
227 187 106 115 199 123 356 112 131 151 158 160 167 172 175 177 175 174 180 179 185 178 169 171 179 172 175 173 177 186 193 174 174 160 174 186 196 179 198 196 190 199 188 201 199 200 219 234 234
218 63 114 127 86 322 184 116 147 169 163 169 171 178 180 182 184 177 178 179 178 179 175 180 181 181 170 175 181 196 183 207 175 184 178 177 190 193 201 207 212 183 209 204 210 222 222 217 211
321 119 99 59 50 225 257 121 151 182 179 171 182 180 183 188 191 181 183 182 178 177 177 181 184 183 179 179 189 194 187 206 189 186 192 170 200 207 214 219 199 206 235 216 206 218 226 226 206
306 308 343 95 18 308 17 307 153 176 199 178 183 186 186 193 190 187 192 185 181 178 178 183 187 186 185 187 189 193 197 199 200 201 181 184 221 205 219 239 202 212 228 231 244 239 237 228 209
258 246 76 120 124 295 298 282 286 152 191 208 184 188 193 196 186 194 195 192 195 184 187 186 190 190 191 192 194 196 201 198 208 205 188 215 225 236 227 245 258 222 255 222 232 241 240 235 204
229 344 12 325 312 246 240 229 231 189 175 187 214 193 198 193 192 193 196 198 195 191 192 191 194 194 196 197 194 193 198 220 202 217 219 217 228 236 244 241 254 270 251 252 239 244 241 234 204
308 24 311 295 301 314 268 124 159 242 172 176 204 202 202 197 198 194 196 200 197 199 195 197 198 198 199 200 198 198 199 201 211 208 218 220 207 231 239 244 246 253 256 255 239 230 231 225 225
302 328 298 293 281 243 170 262 93 167 197 180 200 198 207 195 198 202 201 197 200 196 196 198 198 199 202 202 207 203 218 212 213 214 211 205 220 220 237 237 234 241 243 261 258 267 241 238 237
299 272 244 228 233 222 103 291 125 77 18 297 286 230 218 206 196 199 202 198 200 197 199 200 193 198 203 204 210 212 210 222 224 211 201 220 221 222 216 220 230 237 239 248 250 251 248 245 249
241 252 254 239 215 88 83 273 79 56 36 347 304 262 234 224 217 190 199 196 191 196 196 200 194 204 207 209 212 216 217 214 225 228 218 240 231 226 225 208 214 230 235 244 248 241 244 244 247
282 319 325 223 334 114 147 345 78 24 46 21 10 17 274 252 200 188 187 197 190 190 192 203 197 201 206 213 215 216 220 223 226 222 231 229 232 235 233 199 217 231 240 241 239 241 245 245 243
145 256 18 286 176 252 118 92 139 52 34 34 41 38 31 146 177 179 175 179 192 192 194 200 203 204 210 212 217 219 221 224 227 232 223 237 247 243 234 234 238 237 239 240 241 243 245 251 248
296 351 263 237 334 308 110 201 82 49 27 50 38 45 62 61 98 141 152 170 178 196 192 194 205 213 210 218 212 216 220 222 229 232 233 237 235 229 248 229 233 235 236 241 241 243 248 245 249
193 207 209 289 333 322 290 85 93 93 57 50 70 55 49 44 59 89 126 139 177 188 187 201 213 217 217 218 216 211 214 217 224 236 232 234 238 237 234 235 241 236 232 231 237 241 248 252 252
317 345 281 316 82 44 301 356 100 90 33 58 75 68 67 58 93 105 104 121 154 167 170 185 187 209 216 220 216 214 215 205 200 216 256 243 236 241 240 237 236 237 236 229 231 236 243 244 248